Weather in Vancouver

United States     45°38′25″N   122°40′11″W
temp.,
°C
wind,
m/s
gust,
m/s
humid.,
%
clouds,
%
prec.,
mm/h
press.,
hPa
HPBL,
m
18 may, tue
tue1823:00+10wsw399083 0.8 1017363
02:00+6wnw119698 0.2 102012
05:00+5sse129575 0.2 102137
08:00+10sw258241 0.3 1022469
11:00+15wsw354173 0.6 10212209
14:00+16w2436100 0.1 10202348
17:00+16nw2434100 0.1 10192270
20:00+12nw485115 0.0 1019746
19 may, wed
wed1923:00+5nw22853 0.0 102127
02:00+3wnw119730 0.1 102112
05:00+2ene009710 0.3 102110
08:00+6s118946 0.0 1021251
11:00+12nw126062 0.3 10191211
14:00+15nw3439100 0.5 10172496
17:00+14nnw454188 0.5 10162046
20:00+10nnw386097 0.1 1017659
20 may, thu
thu2023:00+5wnw248524 0.1 101984
02:00+2nw11965 0.0 102011
05:00+2ene009684 0.0 102016
08:00+6e107897 0.0 1021285
11:00+13sse135479 0.0 10201185
14:00+11wnw1381100 0.6 1020198
17:00+11n1490100 2.6 1020229
20:00+10wsw129098 0.5 102056
21 may, fri
fri2123:00+6wnw119359 0.5 102119
02:00+4wnw119665 0.0 102114
05:00+4se009777 0.0 102113
08:00+7s1193100 0.0 1022137
11:00+13se126693 0.0 1021877
14:00+16e33543 0.0 10201064
17:00+18se22474 0.0 1018993
20:00+15wsw116915 0.0 101727
22 may, sat
sat2223:00+8nw249449 0.0 101970
02:00+6nnw119884 0.0 102019
05:00+6nw119820 0.0 101916
08:00+10sse118346 0.0 1019330
11:00+15ese226266 0.0 10191033
14:00+20ese33463 0.0 10161391
17:00+21se444235 0.0 10151544
20:00+16wsw136583 0.0 101694